Location: Asheville, NC
(35.6000°N, 82.5500°W)
Time: 23:55:48
(UTC-05:00)

N. Korean satellite - Pass Details

Date: 16 October 2017
Orbit: 461 x 513 km, 97.2° (Epoch: 17 December)

Event Time Altitude Azimuth Distance (km) Brightness Sun altitude
Rises 20:09:45 0° 190° (S) 2,540 10.3 -16.3°
Reaches altitude 10° 20:12:01 10° 202° (SSW) 1,654 9.5 -16.8°
Maximum altitude 20:15:07 28° 263° (W) 921 8.7 -17.4°
Drops below altitude 10° 20:18:12 10° 324° (NW) 1,640 9.7 -18.1°
Sets 20:20:27 0° 336° (NNW) 2,514 10.5 -18.5°
